Zurück zum Katalog

STARLINK-37827

AktivKommunikationVLEO
NORAD 100291·PAYLOAD·🇺🇸 United States

Gestartet Aug 11, 2026 von Cape Canaveral Space Force Station

Loading…

Nächste Überflüge (nächste 24 Stunden)

TLE

AlterndSource: Space-Track

Epoche: Sep 11, 2026, 13:26 UTC

1 A0291U 26183V   26254.55996392 -.00991816  00000-0 -75972-2 0  9997
2 A0291  53.1581 301.1468 0002067  14.6328 345.4752 15.73805086  4905

Verfolge STARLINK-37827 in Echtzeit mit AllMySat

Download on the App Store